Location: Chamerau
(49.1969°N, 12.7525°E)
Time: 07:56:08
(UTC+00:00)

Cosmos 1707 - Pass Details

Date: 18 September 2020
Orbit: 515 x 530 km, 82.5° (Epoch: 27 October)

Event Time Altitude Azimuth Distance (km) Brightness Sun altitude
Rises 17:40:02 0° 360° (N) 2,656 6.4 -4.9°
Reaches altitude 10° 17:42:28 10° 13° (NNE) 1,760 5.4 -5.3°
Maximum altitude 17:45:43 26° 71° (ENE) 1,061 3.8 -5.8°
Drops below altitude 10° 17:48:57 10° 129° (SE) 1,744 4.8 -6.4°
Enters shadow 17:50:54 - 140° (SE) 2,458 5.7 -6.7°
